Date String (YYYY-MM-DD hh:mm:ss) UTC,Instrument flags,absolute air pressure of the measurement (hPa),sample flow rate (lpm),inlet stack bypass flow (lpm),air temperature of the measurement (°C),ambient temperature measured by the external sensor (°C),aerosol sample conditioner tube jacket temperature (°C),OPC LED temperature (°C),internal box temperature (°C),relative humidity of the measurement (%),span deviation,mass concentration of particles derived from Lorenz-Mie calculation of OPC scattering (μg/m³),mass concentration of particles derived from Lorenz-Mie calculation of OPC scattering (μg/m³),mass concentration of particles derived from Lorenz-Mie calculation of OPC scattering (μg/m³)
DateTimeUTC,F1_M11,P_M11,Q1_M11,Q2_M11,T1_M11,T2_M11,T3_M11,T4_M11,T5_M11,U1_M11,ZSPAN_M11,X0_M11,X2_M11,X1_M11
2023-07-27 01:00:00,SystemResetWarning,0833.6,4.99,000.00,029.0,025.7,000.0,037.2,030.4,30.9,0000.0,0009.11,0004.26,0003.36
2023-07-27 01:01:00,SystemResetWarning,0833.5,5.01,000.00,028.9,024.7,000.0,037.1,030.2,30.5,0000.0,0009.71,0004.25,0003.36
2023-07-27 01:02:00,SystemResetWarning,0833.5,5.01,000.00,028.8,024.7,000.0,037.1,030.0,31.6,0000.0,0009.96,0004.24,0003.36
2023-07-27 01:03:00,SystemResetWarning,0833.5,5.00,000.00,028.7,025.1,000.0,037.1,030.0,30.9,0000.0,0009.83,0004.21,0003.36
2023-07-27 01:04:00,SystemResetWarning,0833.4,4.99,000.00,028.7,025.6,000.0,037.1,030.1,31.0,0000.0,0009.59,0004.18,0003.36
2023-07-27 01:05:00,SystemResetWarning,0833.5,5.00,000.00,028.7,026.1,000.0,037.2,030.2,30.7,0000.0,0009.39,0004.13,0003.35
2023-07-27 01:06:00,SystemResetWarning,0833.5,5.00,000.00,028.8,026.5,000.0,037.2,030.3,30.2,0000.0,0009.20,0004.10,0003.35
2023-07-27 01:07:00,SystemResetWarning,0833.6,5.00,000.00,028.8,026.9,000.0,037.2,030.4,30.8,0000.0,0008.73,0004.11,0003.33
2023-07-27 01:08:00,SystemResetWarning,0833.5,4.99,000.00,028.9,027.2,000.0,037.2,030.5,31.2,0000.0,0008.40,0004.09,0003.32
2023-07-27 01:09:00,SystemResetWarning,0833.5,5.00,000.00,028.9,027.5,000.0,037.2,030.6,31.4,0000.0,0008.41,0004.08,0003.30
2023-07-27 01:10:00,SystemResetWarning,0833.5,4.99,000.00,029.0,027.5,000.0,037.2,030.6,30.7,0000.0,0008.69,0004.04,0003.28
2023-07-27 01:11:00,SystemResetWarning,0833.5,5.00,000.00,029.0,026.1,000.0,037.1,030.5,31.3,0000.0,0009.20,0004.04,0003.26
2023-07-27 01:12:00,SystemResetWarning,0833.4,5.00,000.00,028.9,025.0,000.0,037.0,030.3,30.9,0000.0,0008.60,0003.99,0003.25
2023-07-27 01:13:00,SystemResetWarning,0833.4,5.01,000.00,028.8,024.8,000.0,037.0,030.1,30.6,0000.0,0008.30,0003.97,0003.23
2023-07-27 01:14:00,SystemResetWarning,0833.4,5.01,000.00,028.7,025.1,000.0,037.0,030.0,30.9,0000.0,0008.45,0003.97,0003.21
2023-07-27 01:15:00,SystemResetWarning,0833.4,5.00,000.00,028.7,025.5,000.0,037.0,030.0,30.7,0000.0,0008.55,0003.96,0003.20
2023-07-27 01:16:00,SystemResetWarning,0833.4,5.00,000.00,028.7,026.0,000.0,037.1,030.2,30.6,0000.0,0008.70,0003.97,0003.19
2023-07-27 01:17:00,SystemResetWarning,0833.5,5.00,000.00,028.7,026.5,000.0,037.1,030.3,31.4,0000.0,0008.93,0003.97,0003.18
2023-07-27 01:18:00,SystemResetWarning,0833.4,5.00,000.00,028.8,026.9,000.0,037.1,030.4,31.3,0000.0,0008.81,0003.92,0003.19
2023-07-27 01:19:00,SystemResetWarning,0833.4,4.99,000.00,028.8,027.2,000.0,037.1,030.5,31.9,0000.0,0008.76,0003.91,0003.21
2023-07-27 01:20:00,SystemResetWarning,0833.4,5.00,000.00,028.9,027.5,000.0,037.2,030.6,31.4,0000.0,0008.77,0003.95,0003.23
2023-07-27 01:21:00,SystemResetWarning,0833.5,5.00,000.00,028.9,027.1,000.0,037.1,030.6,31.8,0000.0,0008.44,0003.94,0003.25
2023-07-27 01:22:00,SystemResetWarning,0833.4,5.01,000.00,028.9,025.9,000.0,037.0,030.3,31.8,0000.0,0008.17,0003.95,0003.25
2023-07-27 01:23:00,SystemResetWarning,0833.4,5.01,000.00,028.8,025.6,000.0,037.0,030.2,30.9,0000.0,0008.21,0003.97,0003.25
2023-07-27 01:24:00,SystemResetWarning,0833.4,4.99,000.00,028.8,025.8,000.0,037.0,030.1,31.9,0000.0,0008.12,0003.97,0003.25
2023-07-27 01:25:00,SystemResetWarning,0833.4,5.00,000.00,028.8,026.1,000.0,037.1,030.2,31.5,0000.0,0008.05,0003.99,0003.26
2023-07-27 01:26:00,SystemResetWarning,0833.4,5.00,000.00,028.8,026.5,000.0,037.1,030.3,31.9,0000.0,0007.99,0003.98,0003.26
2023-07-27 01:27:00,SystemResetWarning,0833.4,5.00,000.00,028.8,026.9,000.0,037.1,030.4,31.7,0000.0,0008.13,0003.97,0003.27
2023-07-27 01:28:00,SystemResetWarning,0833.4,5.00,000.00,028.9,027.2,000.0,037.2,030.5,31.3,0000.0,0008.48,0003.99,0003.27
2023-07-27 01:29:00,SystemResetWarning,0833.4,4.99,000.00,028.9,027.4,000.0,037.2,030.6,31.1,0000.0,0008.67,0004.04,0003.28
2023-07-27 01:30:00,SystemResetWarning,0833.4,4.98,000.00,028.9,026.3,000.0,037.1,030.5,31.4,0000.0,0008.83,0004.08,0003.28
2023-07-27 01:31:00,SystemResetWarning,0833.4,5.01,000.00,028.8,024.9,000.0,037.0,030.2,31.1,0000.0,0008.88,0004.08,0003.28
2023-07-27 01:32:00,SystemResetWarning,0833.4,5.01,000.00,028.8,024.7,000.0,036.9,030.0,31.1,0000.0,0008.90,0004.10,0003.28
2023-07-27 01:33:00,SystemResetWarning,0833.4,5.01,000.00,028.7,025.0,000.0,037.0,029.9,31.3,0000.0,0008.75,0004.10,0003.29
2023-07-27 01:34:00,SystemResetWarning,0833.4,5.00,000.00,028.6,025.4,000.0,037.0,030.0,31.4,0000.0,0008.70,0004.10,0003.30
2023-07-27 01:35:00,SystemResetWarning,0833.4,4.99,000.00,028.6,025.9,000.0,037.0,030.1,31.3,0000.0,0008.78,0004.14,0003.31
2023-07-27 01:36:00,SystemResetWarning,0833.4,4.99,000.00,028.7,026.3,000.0,037.0,030.2,31.2,0000.0,0009.23,0004.19,0003.31
2023-07-27 01:37:00,SystemResetWarning,0833.4,5.00,000.00,028.7,026.7,000.0,037.1,030.3,31.2,0000.0,0009.49,0004.20,0003.32
2023-07-27 01:38:00,SystemResetWarning,0833.5,5.01,000.00,028.7,027.1,000.0,037.1,030.4,31.1,0000.0,0009.25,0004.19,0003.33
2023-07-27 01:39:00,SystemResetWarning,0833.5,5.01,000.00,028.8,027.4,000.0,037.1,030.5,31.0,0000.0,0008.86,0004.18,0003.34
2023-07-27 01:40:00,SystemResetWarning,0833.5,4.99,000.00,028.8,027.6,000.0,037.1,030.6,30.9,0000.0,0009.30,0004.18,0003.36
2023-07-27 01:41:00,SystemResetWarning,0833.4,4.98,000.00,028.9,026.7,000.0,037.1,030.5,30.8,0000.0,0009.34,0004.17,0003.37
2023-07-27 01:42:00,SystemResetWarning,0833.4,5.01,000.00,028.8,025.6,000.0,037.0,030.4,30.8,0000.0,0009.27,0004.16,0003.38
2023-07-27 01:43:00,SystemResetWarning,0833.4,5.01,000.00,028.8,025.5,000.0,036.9,030.2,30.8,0000.0,0009.16,0004.13,0003.39
2023-07-27 01:44:00,SystemResetWarning,0833.5,4.99,000.00,028.7,025.8,000.0,037.0,030.1,30.9,0000.0,0009.13,0004.15,0003.41
2023-07-27 01:45:00,SystemResetWarning,0833.5,4.99,000.00,028.7,026.2,000.0,037.0,030.2,30.9,0000.0,0009.11,0004.16,0003.43
2023-07-27 01:46:00,SystemResetWarning,0833.6,5.02,000.00,028.8,026.6,000.0,037.1,030.4,30.9,0000.0,0009.02,0004.14,0003.44
2023-07-27 01:47:00,SystemResetWarning,0833.6,5.00,000.00,028.8,027.0,000.0,037.1,030.5,30.9,0000.0,0008.59,0004.13,0003.47
2023-07-27 01:48:00,SystemResetWarning,0833.6,4.99,000.00,028.8,027.3,000.0,037.1,030.6,30.8,0000.0,0008.32,0004.14,0003.49
2023-07-27 01:49:00,SystemResetWarning,0833.6,5.00,000.00,028.9,027.3,000.0,037.1,030.6,30.8,0000.0,0008.33,0004.18,0003.50
2023-07-27 01:50:00,SystemResetWarning,0833.6,5.01,000.00,028.9,025.9,000.0,037.0,030.4,30.8,0000.0,0008.23,0004.20,0003.51
2023-07-27 01:51:00,SystemResetWarning,0833.6,5.00,000.00,028.8,025.4,000.0,037.0,030.3,30.9,0000.0,0007.94,0004.25,0003.52
2023-07-27 01:52:00,SystemResetWarning,0833.6,5.01,000.00,028.8,025.6,000.0,037.0,030.2,31.0,0000.0,0007.76,0004.26,0003.51
2023-07-27 01:53:00,SystemResetWarning,0833.6,5.01,000.00,028.7,025.9,000.0,037.0,030.2,31.1,0000.0,0008.00,0004.26,0003.50
2023-07-27 01:54:00,SystemResetWarning,0833.7,4.99,000.00,028.8,026.3,000.0,037.1,030.3,31.2,0000.0,0008.46,0004.26,0003.51
2023-07-27 01:55:00,SystemResetWarning,0833.7,5.00,000.00,028.8,026.7,000.0,037.1,030.4,31.2,0000.0,0009.06,0004.25,0003.52
2023-07-27 01:56:00,SystemResetWarning,0833.7,5.00,000.00,028.8,027.1,000.0,037.1,030.5,31.2,0000.0,0009.09,0004.24,0003.52
2023-07-27 01:57:00,SystemResetWarning,0833.8,5.00,000.00,028.9,027.4,000.0,037.2,030.6,31.2,0000.0,0009.26,0004.27,0003.54
2023-07-27 01:58:00,SystemResetWarning,0833.8,4.99,000.00,028.9,027.4,000.0,037.2,030.7,31.2,0000.0,0009.35,0004.30,0003.55
2023-07-27 01:59:00,SystemResetWarning,0833.8,4.99,000.00,028.9,026.1,000.0,037.1,030.5,31.1,0000.0,0009.33,0004.32,0003.56
